Weather History for Toronto, ON

Change the Weather History Date:

Tuesday, August 20, 2013

  Actual Average Record
Temperature  
Mean Temperature 70 °F -  
Max Temperature 79 °F 71 °F 82 °F (2003)
Min Temperature 62 °F 57 °F 55 °F (2004)
Cooling Degree Days 6    
Growing Degree Days 20 (Base 50)    
Moisture  
Dew Point 62 °F    
Average Humidity 77    
Maximum Humidity 94    
Minimum Humidity 37    
Precipitation  
Precipitation 0.00 in 0.10 in - ()
Sea Level Pressure  
Sea Level Pressure 30.08 in    
Wind  
Wind Speed 6 mph ()    
Max Wind Speed 14 mph    
Max Gust Speed -    
Visibility 8.1 miles    
Events      
Averages and records for this station are not official NWS values.
T = Trace of Precipitation, MM = Missing Value Source: Averaged Metar Reports

Daily Weather History Graph

Daily Weather History Graph

Search for Another Location

Airport:

Trip Planner

Search our weather history database for the weather conditions in past years. The results will help you decide how hot, cold, wet, or windy it might be!

Date:

Astronomy

Aug. 20, 2013 Rise Set
Actual Time 6:28 AM EDT 8:12 PM EDT
Civil Twilight 5:57 AM EDT 8:43 PM EDT
Nautical Twilight 5:20 AM EDT 9:20 PM EDT
Astronomical Twilight 4:40 AM EDT 10:00 PM EDT
Moon 7:41 PM EDT (8/20) 5:56 AM EDT (8/20)
Length of Visible Light 14h 45m
Length of Day
13h 44m
Full, 100% of the Moon is Illuminated
Aug 20
Full
Aug 20
Full
Aug 28
Last Quarter
Sep 5
New
Sep 12
First Quarter

Hourly Weather History & Observations

Time (EDT) Temp. Dew Point Humidity Pressure Visibility Wind Dir Wind Speed Gust Speed Precip Events Conditions
12:00 AM 66.2 °F 60.8 °F 83% 30.04 in 9.0 mi WSW 8.1 mph - N/A   Clear
1:00 AM 66.2 °F 60.8 °F 83% 30.05 in 9.0 mi SW 5.8 mph - N/A   Clear
2:00 AM 65 °F 61 °F 83% 30.04 in 10 mi SSW 6.9 mph - -  
2:00 AM 66.2 °F 60.8 °F 83% 30.04 in 9.0 mi SSW 8.1 mph - N/A   Clear
3:00 AM 64.4 °F 60.8 °F 88% 30.05 in 8.0 mi Variable 2.3 mph - N/A   Clear
4:00 AM 64.4 °F 60.8 °F 88% 30.05 in 8.0 mi WSW 3.5 mph - N/A   Clear
5:00 AM 62.6 °F 60.8 °F 94% 30.06 in 8.0 mi SW 4.6 mph - N/A   Clear
6:00 AM 64.4 °F 60.8 °F 88% 30.06 in 8.0 mi West 3.5 mph - N/A   Clear
6:52 AM 62.6 °F 60.8 °F 94% 30.08 in 5.0 mi WSW 2.3 mph - N/A   Clear
7:00 AM 64.4 °F 60.8 °F 88% 30.08 in 4.0 mi West 2.3 mph - N/A   Clear
8:00 AM 65 °F 62 °F 88% 30.10 in 5 mi WSW 4.6 mph - -   Mist
8:00 AM 66.2 °F 62.6 °F 88% 30.10 in 5.0 mi WSW 4.6 mph - N/A   Clear
8:10 AM 66.2 °F 62.6 °F 88% 30.10 in 6.0 mi WSW 4.6 mph - N/A   Clear
8:28 AM 66.2 °F 62.6 °F 88% 30.10 in 5.0 mi WSW 5.8 mph - N/A   Clear
8:45 AM 66.2 °F 62.6 °F 88% 30.11 in 6.0 mi SW 4.6 mph - N/A   Clear
9:00 AM 66.2 °F 62.6 °F 88% 30.11 in 7.0 mi SW 5.8 mph - N/A   Clear
10:00 AM 68.0 °F 62.6 °F 83% 30.11 in 9.0 mi SSW 6.9 mph - N/A   Clear
11:00 AM 69.8 °F 62.6 °F 78% 30.11 in 9.0 mi SSW 8.1 mph - N/A   Clear
12:00 PM 71.6 °F 64.4 °F 78% 30.12 in 9.0 mi SSW 5.8 mph - N/A   Partly Cloudy
1:00 PM 75.2 °F 64.4 °F 69% 30.10 in 9.0 mi South 12.7 mph - N/A   Clear
2:00 PM 75 °F 64 °F 61% 30.09 in 10 mi South 10.4 mph - -  
2:00 PM 75.2 °F 64.4 °F 69% 30.09 in 9.0 mi South 11.5 mph - N/A   Clear
3:00 PM 75.2 °F 62.6 °F 65% 30.08 in 9.0 mi SSW 13.8 mph - N/A   Clear
4:00 PM 75.2 °F 62.6 °F 65% 30.07 in 9.0 mi SSW 12.7 mph - N/A   Partly Cloudy
5:00 PM 73.4 °F 62.6 °F 69% 30.06 in 9.0 mi SSW 11.5 mph - N/A   Scattered Clouds
6:00 PM 73.4 °F 62.6 °F 69% 30.06 in 9.0 mi West 3.5 mph - N/A   Partly Cloudy
7:00 PM 73.4 °F 60.8 °F 65% 30.06 in 9.0 mi SSW 4.6 mph - N/A   Scattered Clouds
8:00 PM 79 °F 58 °F 37% 30.06 in 10 mi West 9.2 mph - -  
8:00 PM 78.8 °F 57.2 °F 47% 30.06 in 9.0 mi West 10.4 mph - N/A   Clear
9:00 PM 75.2 °F 59.0 °F 57% 30.08 in 9.0 mi West 8.1 mph - N/A   Clear
10:00 PM 68.0 °F 62.6 °F 83% 30.09 in 9.0 mi South 5.8 mph - N/A   Clear
11:00 PM 68.0 °F 62.6 °F 83% 30.10 in 9.0 mi SW 6.9 mph - N/A   Clear